Location: Lafig�re
(44.4503°N, 4.0357°E)
Time: 14:37:39
(UTC+00:00)

Vanguard 2 Rocket - Pass Details

Date: 29 January 2021
Orbit: 554 x 3325 km, 32.9° (Epoch: 06 March)

Event Time Altitude Azimuth Distance (km) Brightness Sun altitude
Rises 12:43:20 0° 229° (SW) 7,289 12.3 26.9°
Reaches altitude 10° 12:48:55 10° 223° (SW) 6,151 12.3 26.7°
Maximum altitude 13:05:15 40° 163° (SSE) 3,396 11.0 25.9°
Drops below altitude 10° 13:16:15 10° 100° (E) 4,204 10.3 25.2°
Sets 13:19:14 0° 92° (E) 4,861 10.4 25.0°
